{"data":{"norad_id":66988,"intl_designator":"2025-289A","name":"YAOGAN-47","alt_names":[],"object_type":"PAYLOAD","status":"ACTIVE","operator":null,"country":"PRC","launch_date":"2025-12-09","launch_site_code":"JSC","launch_vehicle":null,"mission":null,"orbit_class":"UNKNOWN","rcs_meters":null,"size_class":null,"mass_kg":null,"dimensions":null,"purposes":[],"wikipedia_slug":null,"has_3d_model":false,"image_url":null,"decayed_at":null,"tle_current":{"epoch":"2026-09-20T21:45:56.652480Z","epoch_age_seconds":76854,"freshness":"FRESH","line1":"1 66988U 25289A   26263.90690570  .00003089  00000+0  13277-3 0  9990","line2":"2 66988  97.4936 334.1484 0002441 226.4090 133.6945 15.23427810 43504","mean_motion":15.2342781,"eccentricity":0.0002441,"inclination_deg":97.4936,"raan_deg":334.1484,"arg_perigee_deg":226.409,"mean_anomaly_deg":133.6945,"bstar":0.00013277,"rev_number":4350,"period_min":94.523678151838,"perigee_km":493.83262013711,"apogee_km":497.18833483561,"semimajor_km":6873.6474774864,"source":"CELESTRAK","updated_at":"2026-09-21T09:00:16.364163Z"}}}